| time (UTC) | temp F | wind direction | speed knots | gust knots | rain 1hr in | rain 24hr in | rain mn in | humidity % | barometer mb |
| 20260505053831 | 66 | 259 | 0.0 | 1.7 | 0.00 | 0.00 | 0.00 | 76 | 1013.1 |
| 20260505053329 | 66 | 151 | 0.0 | 1.7 | 0.00 | 0.00 | 0.00 | 76 | 1013.1 |
| 20260505052828 | 66 | 0 | 0.0 | 1.7 | 0.00 | 0.00 | 0.00 | 75 | 1013.0 |
| 20260505052328 | 66 | 0 | 0.0 | 1.7 | 0.00 | 0.00 | 0.00 | 75 | 1012.9 |
| 20260505052050 | 67 | 0 | 1.7 | 3.5 | 0.00 | 0.00 | 0.00 | 75 | 1012.8 |
| 20260505051330 | 67 | 167 | 1.7 | 3.5 | 0.00 | 0.00 | 0.00 | 74 | 1012.8 |
| 20260505051050 | 67 | 186 | 1.7 | 3.5 | 0.00 | 0.00 | 0.00 | 74 | 1012.8 |
| 20260505050329 | 67 | 150 | 1.7 | 3.5 | 0.00 | 0.00 | 0.00 | 74 | 1012.8 |
| 20260505041327 | 67 | 167 | 0.9 | 3.5 | 0.00 | 0.00 | 0.00 | 71 | 1013.5 |
| 20260505041049 | 67 | 175 | 1.7 | 3.5 | 0.00 | 0.00 | 0.00 | 70 | 1013.4 |
| 20260505040548 | 67 | 175 | 1.7 | 2.6 | 0.00 | 0.00 | 0.00 | 70 | 1013.5 |
| 20260505035827 | 68 | 188 | 1.7 | 3.5 | 0.00 | 0.00 | 0.00 | 70 | 1013.6 |
| 20260505035328 | 68 | 143 | 1.7 | 3.5 | 0.00 | 0.00 | 0.00 | 69 | 1013.6 |
| 20260505034827 | 68 | 176 | 2.6 | 5.2 | 0.00 | 0.00 | 0.00 | 69 | 1013.6 |
| 20260505034328 | 68 | 173 | 1.7 | 5.2 | 0.00 | 0.00 | 0.00 | 68 | 1013.5 |
| 20260505033828 | 68 | 183 | 2.6 | 6.1 | 0.00 | 0.00 | 0.00 | 68 | 1013.5 |
| 20260505033324 | 68 | 135 | 2.6 | 6.1 | 0.00 | 0.00 | 0.00 | 68 | 1013.5 |
| 20260505032825 | 68 | 174 | 2.6 | 5.2 | 0.00 | 0.00 | 0.00 | 68 | 1013.4 |
| 20260505032322 | 68 | 185 | 2.6 | 5.2 | 0.00 | 0.00 | 0.00 | 68 | 1013.2 |
| 20260505031821 | 68 | 216 | 2.6 | 7.0 | 0.00 | 0.00 | 0.00 | 67 | 1013.2 |
| 20260505031539 | 68 | 186 | 2.6 | 7.0 | 0.00 | 0.00 | 0.00 | 67 | 1013.3 |
| 20260505030822 | 68 | 186 | 2.6 | 6.1 | 0.00 | 0.00 | 0.00 | 67 | 1013.4 |
| 20260505030322 | 68 | 156 | 2.6 | 5.2 | 0.00 | 0.00 | 0.00 | 67 | 1013.5 |
| 20260505030212 | 69 | 203 | 3.5 | 6.1 | 0.00 | 0.00 | 0.00 | 66 | 1013.4 |
| 20260505030207 | 68 | 169 | 2.6 | 5.2 | 0.00 | 0.00 | 0.00 | 67 | 1013.4 |
| 20260505030203 | 69 | 178 | 3.5 | 6.1 | 0.00 | 0.00 | 0.00 | 66 | 1013.4 |
| 20260505025945 | 68 | 192 | 2.6 | 5.2 | 0.00 | 0.00 | 0.00 | 67 | 1013.4 |
| 20260505025720 | 69 | 174 | 2.6 | 5.2 | 0.00 | 0.00 | 0.00 | 67 | 1013.4 |
| 20260505023822 | 69 | 203 | 3.5 | 6.1 | 0.00 | 0.00 | 0.00 | 66 | 1013.4 |
| 20260505023323 | 69 | 198 | 2.6 | 7.0 | 0.00 | 0.00 | 0.00 | 66 | 1013.3 |
| 20260505022823 | 69 | 160 | 2.6 | 7.0 | 0.00 | 0.00 | 0.00 | 66 | 1013.3 |
| 20260505022319 | 69 | 152 | 3.5 | 7.8 | 0.00 | 0.00 | 0.00 | 65 | 1013.2 |
| 20260505021820 | 69 | 166 | 3.5 | 7.8 | 0.00 | 0.00 | 0.00 | 65 | 1013.2 |
| 20260505021320 | 69 | 199 | 3.5 | 6.1 | 0.00 | 0.00 | 0.00 | 65 | 1013.3 |
| 20260505020817 | 69 | 183 | 3.5 | 6.1 | 0.00 | 0.00 | 0.00 | 65 | 1013.4 |
| 20260505020316 | 69 | 169 | 3.5 | 6.1 | 0.00 | 0.00 | 0.00 | 65 | 1013.3 |
| 20260505015817 | 69 | 169 | 2.6 | 6.1 | 0.00 | 0.00 | 0.00 | 65 | 1013.3 |
| 20260505015317 | 69 | 190 | 2.6 | 5.2 | 0.00 | 0.00 | 0.00 | 65 | 1013.3 |
| 20260505014817 | 69 | 163 | 2.6 | 6.1 | 0.00 | 0.00 | 0.00 | 65 | 1013.1 |
| 20260505014317 | 69 | 208 | 2.6 | 6.1 | 0.00 | 0.00 | 0.00 | 65 | 1013.0 |
| 20260505013817 | 70 | 161 | 2.6 | 5.2 | 0.00 | 0.00 | 0.00 | 64 | 1013.0 |
| 20260505013315 | 70 | 168 | 2.6 | 5.2 | 0.00 | 0.00 | 0.00 | 64 | 1012.9 |
| 20260505012815 | 70 | 160 | 2.6 | 5.2 | 0.00 | 0.00 | 0.00 | 63 | 1013.0 |
| 20260505012315 | 70 | 185 | 2.6 | 5.2 | 0.00 | 0.00 | 0.00 | 62 | 1013.1 |
| 20260505012038 | 70 | 166 | 3.5 | 5.2 | 0.00 | 0.00 | 0.00 | 62 | 1013.0 |
| 20260505011315 | 71 | 180 | 2.6 | 5.2 | 0.00 | 0.00 | 0.00 | 61 | 1013.0 |
| 20260505010815 | 71 | 188 | 2.6 | 5.2 | 0.00 | 0.00 | 0.00 | 61 | 1012.9 |
| 20260505010314 | 71 | 149 | 3.5 | 5.2 | 0.00 | 0.00 | 0.00 | 60 | 1012.9 |
| 20260505005815 | 71 | 153 | 3.5 | 6.1 | 0.00 | 0.00 | 0.00 | 60 | 1013.0 |
| 20260505005312 | 71 | 155 | 3.5 | 6.1 | 0.00 | 0.00 | 0.00 | 59 | 1013.1 |
| 20260505005255 | 71 | 179 | 3.5 | 6.1 | 0.00 | 0.00 | 0.00 | 59 | 1013.3 |
| 20260505004309 | 71 | 176 | 3.5 | 7.0 | 0.00 | 0.00 | 0.00 | 58 | 1013.3 |
| 20260505003809 | 72 | 151 | 3.5 | 7.8 | 0.00 | 0.00 | 0.00 | 58 | 1013.2 |
| 20260505003309 | 72 | 190 | 4.3 | 7.8 | 0.00 | 0.00 | 0.00 | 57 | 1013.2 |
| 20260505002809 | 72 | 167 | 4.3 | 7.8 | 0.00 | 0.00 | 0.00 | 56 | 1013.3 |
| 20260505002309 | 72 | 148 | 4.3 | 7.8 | 0.00 | 0.00 | 0.00 | 55 | 1013.3 |
| 20260505001809 | 73 | 203 | 3.5 | 7.8 | 0.00 | 0.00 | 0.00 | 55 | 1013.3 |
| 20260505001528 | 73 | 176 | 4.3 | 8.7 | 0.00 | 0.00 | 0.00 | 55 | 1013.4 |
| 20260505000809 | 73 | 173 | 4.3 | 8.7 | 0.00 | 0.00 | 0.00 | 55 | 1013.3 |
| 20260505000309 | 73 | 199 | 4.3 | 7.8 | 0.00 | 0.00 | 0.00 | 55 | 1013.3 |
| 20260504235810 | 73 | 184 | 5.2 | 10.4 | 0.00 | 0.00 | 0.00 | 55 | 1013.3 |
| 20260504235532 | 73 | 172 | 5.2 | 10.4 | 0.00 | 0.00 | 0.00 | 54 | 1013.3 |
| 20260504234810 | 73 | 186 | 6.1 | 9.6 | 0.00 | 0.00 | 0.00 | 53 | 1013.3 |
| 20260504234527 | 73 | 161 | 6.1 | 10.4 | 0.00 | 0.00 | 0.00 | 53 | 1013.5 |
| 20260504233807 | 73 | 208 | 5.2 | 10.4 | 0.00 | 0.00 | 0.00 | 52 | 1013.5 |
| 20260504233306 | 73 | 144 | 5.2 | 10.4 | 0.00 | 0.00 | 0.00 | 52 | 1013.6 |
| 20260504232807 | 73 | 187 | 5.2 | 10.4 | 0.00 | 0.00 | 0.00 | 51 | 1013.6 |
| 20260504232307 | 73 | 183 | 5.2 | 10.4 | 0.00 | 0.00 | 0.00 | 50 | 1013.6 |
| 20260504231807 | 74 | 180 | 5.2 | 9.6 | 0.00 | 0.00 | 0.00 | 49 | 1013.6 |
| 20260504231307 | 74 | 187 | 6.1 | 11.3 | 0.00 | 0.00 | 0.00 | 49 | 1013.7 |
| 20260504231029 | 74 | 185 | 5.2 | 11.3 | 0.00 | 0.00 | 0.00 | 50 | 1013.8 |
| 20260504230751 | 74 | 170 | 5.2 | 10.4 | 0.00 | 0.00 | 0.00 | 49 | 1013.8 |
| 20260504225808 | 74 | 142 | 5.2 | 9.6 | 0.00 | 0.00 | 0.00 | 49 | 1013.8 |
| 20260504225308 | 74 | 185 | 5.2 | 9.6 | 0.00 | 0.00 | 0.00 | 49 | 1013.8 |
| 20260504224807 | 74 | 204 | 5.2 | 9.6 | 0.00 | 0.00 | 0.00 | 49 | 1013.8 |
| 20260504224307 | 74 | 167 | 5.2 | 9.6 | 0.00 | 0.00 | 0.00 | 48 | 1013.8 |
| 20260504224029 | 74 | 148 | 5.2 | 11.3 | 0.00 | 0.00 | 0.00 | 48 | 1013.9 |
| 20260504223307 | 74 | 159 | 5.2 | 11.3 | 0.00 | 0.00 | 0.00 | 48 | 1014.0 |
| 20260504222805 | 75 | 171 | 5.2 | 8.7 | 0.00 | 0.00 | 0.00 | 47 | 1013.9 |
| 20260504222305 | 74 | 165 | 5.2 | 10.4 | 0.00 | 0.00 | 0.00 | 47 | 1014.0 |
| 20260504222026 | 74 | 172 | 5.2 | 10.4 | 0.00 | 0.00 | 0.00 | 47 | 1014.0 |
| 20260504221305 | 75 | 204 | 5.2 | 9.6 | 0.00 | 0.00 | 0.00 | 46 | 1014.1 |
| 20260504220805 | 75 | 141 | 4.3 | 9.6 | 0.00 | 0.00 | 0.00 | 46 | 1014.2 |
| 20260504220305 | 75 | 180 | 4.3 | 9.6 | 0.00 | 0.00 | 0.00 | 46 | 1014.2 |
| 20260504215805 | 74 | 173 | 5.2 | 9.6 | 0.00 | 0.00 | 0.00 | 46 | 1014.1 |
| 20260504215305 | 74 | 201 | 5.2 | 9.6 | 0.00 | 0.00 | 0.00 | 47 | 1014.1 |
| 20260504214805 | 74 | 157 | 5.2 | 9.6 | 0.00 | 0.00 | 0.00 | 46 | 1014.1 |
| 20260504214306 | 74 | 200 | 5.2 | 10.4 | 0.00 | 0.00 | 0.00 | 47 | 1014.2 |
| 20260504213805 | 74 | 355 | 7.0 | 10.4 | 0.00 | 0.00 | 0.00 | 47 | 1014.1 |
| 20260504213303 | 74 | 199 | 6.1 | 10.4 | 0.00 | 0.00 | 0.00 | 46 | 1014.2 |
| 20260504212804 | 75 | 186 | 5.2 | 10.4 | 0.00 | 0.00 | 0.00 | 46 | 1014.2 |
| 20260504212304 | 75 | 236 | 5.2 | 10.4 | 0.00 | 0.00 | 0.00 | 44 | 1014.2 |
| 20260504212024 | 75 | 191 | 5.2 | 10.4 | 0.00 | 0.00 | 0.00 | 45 | 1014.5 |
| 20260504211303 | 75 | 171 | 4.3 | 10.4 | 0.00 | 0.00 | 0.00 | 43 | 1014.4 |
| 20260504210802 | 76 | 182 | 5.2 | 10.4 | 0.00 | 0.00 | 0.00 | 43 | 1014.2 |
| 20260504210303 | 75 | 303 | 5.2 | 8.7 | 0.00 | 0.00 | 0.00 | 42 | 1014.2 |
| 20260504205803 | 75 | 193 | 5.2 | 9.6 | 0.00 | 0.00 | 0.00 | 41 | 1014.2 |
| 20260504205304 | 75 | 118 | 5.2 | 10.4 | 0.00 | 0.00 | 0.00 | 43 | 1014.3 |
| 20260504204803 | 75 | 157 | 5.2 | 10.4 | 0.00 | 0.00 | 0.00 | 41 | 1014.5 |
| 20260504204522 | 75 | 180 | 5.2 | 11.3 | 0.00 | 0.00 | 0.00 | 41 | 1014.6 |
| 20260504204022 | 75 | 161 | 5.2 | 11.3 | 0.00 | 0.00 | 0.00 | 40 | 1014.6 |
| 20260504203304 | 75 | 172 | 5.2 | 11.3 | 0.00 | 0.00 | 0.00 | 42 | 1014.7 |
| 20260504202803 | 75 | 195 | 5.2 | 10.4 | 0.00 | 0.00 | 0.00 | 42 | 1014.8 |
| 20260504202304 | 76 | 160 | 4.3 | 11.3 | 0.00 | 0.00 | 0.00 | 42 | 1014.7 |
| 20260504201804 | 76 | 191 | 5.2 | 11.3 | 0.00 | 0.00 | 0.00 | 41 | 1014.9 |
| 20260504201303 | 76 | 184 | 5.2 | 9.6 | 0.00 | 0.00 | 0.00 | 40 | 1015.1 |
| 20260504200803 | 76 | 206 | 5.2 | 8.7 | 0.00 | 0.00 | 0.00 | 41 | 1015.1 |
| 20260504200304 | 76 | 166 | 5.2 | 10.4 | 0.00 | 0.00 | 0.00 | 42 | 1015.2 |
| 20260504195803 | 76 | 146 | 5.2 | 10.4 | 0.00 | 0.00 | 0.00 | 41 | 1015.3 |
| 20260504195304 | 75 | 159 | 5.2 | 10.4 | 0.00 | 0.00 | 0.00 | 41 | 1015.4 |
| 20260504194804 | 76 | 178 | 6.1 | 11.3 | 0.00 | 0.00 | 0.00 | 39 | 1015.5 |
| 20260504194453 | 76 | 182 | 5.2 | 11.3 | 0.00 | 0.00 | 0.00 | 40 | 1015.5 |
| 20260504193303 | 76 | 168 | 5.2 | 10.4 | 0.00 | 0.00 | 0.00 | 39 | 1015.6 |
| 20260504192803 | 75 | 54 | 6.1 | 11.3 | 0.00 | 0.00 | 0.00 | 41 | 1015.7 |
| 20260504192304 | 75 | 197 | 6.1 | 11.3 | 0.00 | 0.00 | 0.00 | 41 | 1015.8 |
| 20260504192020 | 76 | 193 | 4.3 | 11.3 | 0.00 | 0.00 | 0.00 | 42 | 1015.8 |
| 20260504191304 | 76 | 215 | 3.5 | 10.4 | 0.00 | 0.00 | 0.00 | 41 | 1015.7 |
| 20260504190803 | 76 | 185 | 5.2 | 10.4 | 0.00 | 0.00 | 0.00 | 41 | 1015.7 |
| 20260504190303 | 76 | 169 | 5.2 | 10.4 | 0.00 | 0.00 | 0.00 | 42 | 1015.9 |
| 20260504190024 | 76 | 164 | 4.3 | 10.4 | 0.00 | 0.00 | 0.00 | 43 | 1016.0 |
| 20260504185720 | 76 | 211 | 3.5 | 9.6 | 0.00 | 0.00 | 0.00 | 42 | 1016.0 |
| 20260504184302 | 76 | 66 | 5.2 | 11.3 | 0.00 | 0.00 | 0.00 | 44 | 1016.1 |
| 20260504183758 | 76 | 175 | 6.1 | 11.3 | 0.00 | 0.00 | 0.00 | 42 | 1016.2 |
| 20260504183258 | 76 | 185 | 4.3 | 11.3 | 0.00 | 0.00 | 0.00 | 43 | 1016.3 |
| 20260504182759 | 77 | 227 | 3.5 | 7.8 | 0.00 | 0.00 | 0.00 | 42 | 1016.3 |
| 20260504182259 | 76 | 229 | 4.3 | 11.3 | 0.00 | 0.00 | 0.00 | 42 | 1016.4 |
| 20260504181759 | 76 | 284 | 4.3 | 11.3 | 0.00 | 0.00 | 0.00 | 43 | 1016.3 |
| 20260504181259 | 76 | 168 | 4.3 | 8.7 | 0.00 | 0.00 | 0.00 | 44 | 1016.3 |
| 20260504180759 | 76 | 204 | 4.3 | 8.7 | 0.00 | 0.00 | 0.00 | 44 | 1016.3 |
| 20260504180259 | 76 | 297 | 3.5 | 8.7 | 0.00 | 0.00 | 0.00 | 43 | 1016.3 |
| 20260504175759 | 75 | 209 | 4.3 | 11.3 | 0.00 | 0.00 | 0.00 | 43 | 1016.4 |
| 20260504175300 | 75 | 192 | 4.3 | 11.3 | 0.00 | 0.00 | 0.00 | 43 | 1016.4 |
| 20260504174759 | 75 | 199 | 3.5 | 8.7 | 0.00 | 0.00 | 0.00 | 44 | 1016.4 |
| 20260504174259 | 75 | 194 | 5.2 | 12.2 | 0.00 | 0.00 | 0.00 | 45 | 1016.6 |
| 20260504173800 | 75 | 161 | 5.2 | 12.2 | 0.00 | 0.00 | 0.00 | 46 | 1016.5 |
| 20260504173300 | 75 | 231 | 6.1 | 10.4 | 0.00 | 0.00 | 0.00 | 44 | 1016.5 |
| 20260504172759 | 75 | 166 | 7.0 | 11.3 | 0.00 | 0.00 | 0.00 | 45 | 1016.4 |
| 20260504172257 | 75 | 155 | 5.2 | 11.3 | 0.00 | 0.00 | 0.00 | 46 | 1016.4 |
| 20260504171757 | 75 | 262 | 4.3 | 11.3 | 0.00 | 0.00 | 0.00 | 45 | 1016.3 |
| 20260504171257 | 75 | 202 | 4.3 | 11.3 | 0.00 | 0.00 | 0.00 | 45 | 1016.4 |
| 20260504170757 | 76 | 191 | 3.5 | 11.3 | 0.00 | 0.00 | 0.00 | 45 | 1016.5 |
| 20260504170257 | 75 | 148 | 3.5 | 8.7 | 0.00 | 0.00 | 0.00 | 45 | 1016.4 |
| 20260504160255 | 75 | 147 | 3.5 | 8.7 | 0.00 | 0.00 | 0.00 | 47 | 1017.0 |
| 20260504151019 | 73 | 139 | 3.5 | 7.8 | 0.00 | 0.00 | 0.00 | 49 | 1017.2 |
| 20260504150252 | 73 | 293 | 3.5 | 7.8 | 0.00 | 0.00 | 0.00 | 52 | 1017.1 |
| 20260504141251 | 71 | 217 | 1.7 | 4.3 | 0.00 | 0.00 | 0.00 | 55 | 1017.2 |
| 20260504141011 | 71 | 253 | 1.7 | 4.3 | 0.00 | 0.00 | 0.00 | 54 | 1017.3 |
| 20260504140251 | 70 | 270 | 1.7 | 4.3 | 0.00 | 0.00 | 0.00 | 55 | 1017.3 |
| 20260504130748 | 70 | 225 | 0.9 | 1.7 | 0.00 | 0.00 | 0.00 | 62 | 1017.4 |
| 20260504130511 | 70 | 0 | 0.0 | 1.7 | 0.00 | 0.00 | 0.00 | 62 | 1017.4 |
| 20260504110502 | 56 | 357 | 0.0 | 0.9 | 0.00 | 0.00 | 0.00 | 86 | 1016.5 |
| 20260504100232 | 58 | 0 | 0.0 | 1.7 | 0.00 | 0.00 | 0.00 | 82 | 1016.7 |
| 20260504081721 | 59 | 176 | 0.9 | 2.6 | 0.00 | 0.00 | 0.00 | 80 | 1016.5 |
| 20260504081222 | 59 | 66 | 0.9 | 2.6 | 0.00 | 0.00 | 0.00 | 80 | 1016.5 |
| 20260504080722 | 59 | 0 | 0.0 | 0.9 | 0.00 | 0.00 | 0.00 | 80 | 1016.6 |
| 20260504080222 | 59 | 121 | 0.0 | 0.9 | 0.00 | 0.00 | 0.00 | 79 | 1016.7 |
| 20260504070220 | 60 | 0 | 0.0 | 1.7 | 0.00 | 0.00 | 0.00 | 76 | 1017.2 |